Home   Weather   Oakland   Past weeks

Flag for USA Past Weather in Oakland, California, USA — Yesterday and Last 2 Weeks

Now
54 °F

Overcast.


Feels Like: 52 °F
Forecast: 47 / 57 °F
Wind: 7 mph from East

Location: Metro Oakland International Airport

Current Time: Dec 5, 2016 at 10:48:49 am

Latest Report: Dec 5, 2016 at 9:53 am


Visibility: 10 mi

Pressure: 30.11 "Hg

Humidity: 83%

Dew Point: 49 °F

Location of OaklandLocation

Past Weather in Oakland — Graph

°F

Oakland Temperature Yesterday

Maximum temperature yesterday: 60 °F (at 1:53 pm)
Minimum temperature yesterday: 42 °F (at 6:53 am)
Average temperature yesterday: 51 °F

High & Low Weather Summary for the Past Weeks

 TemperatureHumidityPressure
High65 °F (Dec 2, 12:53 pm)100% (Nov 20, 7:53 pm)30.37 "Hg (Nov 20, 7:53 pm)
Low41 °F (Nov 24, 4:53 am)27% (Dec 2, 12:53 pm)29.79 "Hg (Nov 26, 4:53 am)
Average53 °F76%30.11 "Hg
* Reported Nov 20 7:53 am — Dec 5 7:53 am, Oakland, Weather by CustomWeather, © 2016

Note: Actual official high and low records may vary slightly from our data, if they occured in-between our weather recording intervals... More about our weather records

Advertising

Oakland Weather History for the Previous 24 Hours

Scroll right to see more
 ConditionsComfort  
Time TempWeatherWind HumidityBarometerVisibility
7:53 am
Mon, Dec 5
53 °FOvercast.No wind89%30.10 "Hg10 mi
6:53 am51 °FOvercast.5 mph92%30.09 "Hg10 mi
5:53 am52 °FOvercast.No wind100%30.09 "Hg2 mi
4:53 am52 °FFog.No wind97%30.09 "Hg2 mi
3:53 am51 °FFog.5 mph96%30.10 "Hg0 mi
2:53 am52 °FFog.No wind97%30.11 "Hg0 mi
1:53 am53 °FLow clouds.3 mph93%30.11 "Hg10 mi
12:53 am53 °FLow clouds.No wind96%30.12 "Hg9 mi
11:53 pm
Sun, Dec 4
50 °FLow clouds.No wind96%30.12 "Hg10 mi
10:53 pm52 °FPassing clouds.No wind93%30.14 "Hg10 mi
9:53 pm49 °FPassing clouds.3 mph93%30.14 "Hg10 mi
8:53 pm51 °FPassing clouds.No wind89%30.13 "Hg9 mi
7:53 pm52 °FPassing clouds.No wind89%30.12 "Hg9 mi
6:53 pm53 °FPassing clouds.3 mph89%30.12 "Hg10 mi
5:53 pm55 °FPartly cloudy.No wind83%30.13 "Hg10 mi
4:53 pm57 °FPartly cloudy.No wind81%30.13 "Hg10 mi
3:53 pm58 °FBroken clouds.5 mph78%30.13 "Hg9 mi
2:53 pm59 °FMostly cloudy.7 mph69%30.13 "Hg10 mi
1:53 pm60 °FMostly cloudy.6 mph60%30.14 "Hg10 mi
12:53 pm58 °FPartly sunny.6 mph70%30.15 "Hg10 mi
11:53 am56 °FPassing clouds.5 mph75%30.16 "Hg10 mi
10:53 am54 °FPassing clouds.5 mph80%30.20 "Hg10 mi
Weather by CustomWeather, © 2016

See weather overviewHow to use our weather pages